Location: ?????
(31.8092°N, 35.2590°E)
Time: 03:45:18
(UTC+00:00)

Cosmos 2360 Rocket - Pass Details

Date: 25 October 2021
Orbit: 832 x 846 km, 71.0° (Epoch: 07 December)

Event Time Altitude Azimuth Distance (km) Brightness Sun altitude
Rises 03:11:04 0° 326° (NW) 3,408 4.9 -8.9°
Reaches altitude 10° 03:13:48 10° 316° (NW) 2,469 4.2 -8.3°
Maximum altitude 03:18:36 29° 258° (WSW) 1,501 3.0 -7.3°
Drops below altitude 10° 03:23:23 10° 199° (SSW) 2,455 4.5 -6.3°
Sets 03:26:06 0° 189° (S) 3,384 5.4 -5.7°
